Retour au catalogue

FENGYUN 1C DEB

ActifPO
NORAD 38498·DEBRIS·🇨🇳 China

Lancé May 10, 1999 depuis Taiyuan Satellite Launch Center

Loading…

Prochains Passages (prochaines 24 heures)

TLE

FraisSource: Space-Track

Époque: Sep 14, 2026, 05:12 UTC

1 38498U 99025ESH 26257.21734764  .00000887  00000-0  15736-2 0  9990
2 38498  99.6960 252.6027 0554378 165.3838 196.4054 12.97043214573145

Suivez FENGYUN 1C DEB en temps réel avec AllMySat

Download on the App Store